Hourly Weather Roundup
Issued by NWS Central Illinois

Home | Current Version | Previous Version | Text Only | Print | Product List | Glossary On
Versions: 1 2 3 4 5 6 7 8 9 10 11 12 13 14 15 16 17 18 19 20 21 22 23 24 25 26 27 28 29 30 31 32 33 34 35 36 37 38 39 40 41 42 43 44 45 46 47 48 49 50
000
NZUS43 KILX 302010
HWRILX

AREA WEATHER ROUNDUP
NATIONAL WEATHER SERVICE, LINCOLN IL
300 PM CDT THU OCT 30 2014


CITY           SKY/WX    TMP DP  RH WIND       PRES   REMARKS
BLOOMINGTON    CLOUDY    51  39  63 S5        30.07F
CHAMPAIGN      CLOUDY    53  36  52 SW6       30.08S
DECATUR        LGT RAIN  52  41  66 SE5       30.06F
FLORA          SUNNY     57  37  46 S6        30.07F
GALESBURG      CLOUDY    46  40  79 E7        30.04F
JACKSONVILLE   LGT RAIN  54  42  65 CALM      30.02S
LACON          CLOUDY    48  36  63 CALM      30.06F
LAWRENCEVILLE  SUNNY     56  31  38 S3        30.08F
LITCHFIELD     RAIN      50  42  72 SE7       30.04F
$$


CITY           SKY/WX    TMP DP  RH WIND       PRES   REMARKS
LINCOLN        DRIZZLE   51  42  70 CALM      30.05S
MACOMB         CLOUDY    53  41  63 E10       30.04F
MATTOON        CLOUDY    52  36  54 S7        30.07S
MT CARMEL AP   SUNNY     59  36  41 SW5       30.07F
OLNEY-NOBLE AP MOSUNNY   55  37  50 CALM      30.07F
PARIS          CLOUDY    53  36  51 CALM      30.08F
PEORIA         CLOUDY    50  39  66 E5        30.06F
PONTIAC        CLOUDY    50  38  62 SW5       30.08F
RANTOUL        CLOUDY    54  36  52 SW5       30.07F
ROBINSON       SUNNY     58  37  45 S5        30.08F
SPRINGFIELD    CLOUDY    53  41  63 S8        30.05R
TAYLORVILLE    CLOUDY    50  43  76 SE8       30.03F
$$

...REGIONAL REPORTS...


CITY           SKY/WX    TMP DP  RH WIND       PRES   REMARKS
CHICAGO O`HARE CLOUDY    50  34  54 W12       30.05F
KANKAKEE       NOT AVBL
MOLINE         CLOUDY    50  38  63 SE7       30.04F
MOUNT VERNON   CLOUDY    59  39  47 S5        30.06F
PITTSFIELD     CLOUDY    53  43  67 SW3       30.02S
QUINCY         MOSUNNY   55  43  63 S7        29.99F
ROCKFORD       CLOUDY    51  36  56 W6        30.07F
$$


CITY           SKY/WX    TMP DP  RH WIND       PRES   REMARKS
BURLINGTON     MOSUNNY   55  40  56 SE8       30.00F
CEDAR RAPIDS   CLOUDY    54  37  52 E7        30.02F
DES MOINES     MOSUNNY   63  39  41 NE6       30.00F
KIRKSVILLE     SUNNY     62  43  49 CALM      29.97F
OTTUMWA        CLOUDY    61  39  44 N6        29.99S
ST LOUIS       CLOUDY    60  39  45 CALM      30.03F
$$


CITY           SKY/WX    TMP DP  RH WIND       PRES   REMARKS
TERRE HAUTE    PTSUNNY   54  36  50 SW6       30.08F
EVANSVILLE     SUNNY     58  38  47 VRB3      30.08F
INDIANAPOLIS   PTSUNNY   52  34  50 CALM      30.06F
LAFAYETTE      MOSUNNY   52  34  50 VRB3      30.07F
MADISON        CLOUDY    50  35  56 NW7       30.05S
MILWAUKEE      PTSUNNY   51  32  48 W9        30.04F
$$





USA.gov is the U.S. government's official web portal to all federal, state and local government web resources and services.